This demonstration page uses our WeatherBlox Daily Observations layout. Learn more.

Left ArrowRight Arrow

39.01783, -85.05884

Hourly Observations for April 28, 2020

Temp ( °F °C ) Dew Point ( °F °C ) Humidity (%) Winds ( mph kmh ) Pressure ( in mb ) Visibility ( mi km ) Precip ( " mm )
12:52 am 00:52 Cloudy 56 13.3 39 3.9 53 53 S 9 15 30.04 1017 10 16 0.00 0.00
1:52 am 01:52 Cloudy with Drizzle 56 13.3 40 4.4 55 55 SSW 10 17 30.02 1017 10 16 0.00 0.00
2:52 am 02:52 Cloudy 56 13.3 41 5 57 57 SSW 10 17 30.01 1016 10 16 0.00 0.00
3:52 am 03:52 Cloudy 58 14.4 41 5 53 53 SSW 8 13 30.00 1016 10 16 N/A
4:52 am 04:52 Cloudy 57 13.9 40 4.4 53 53 SSW 9 15 30.00 1016 10 16 N/A
5:52 am 05:52 Cloudy 57 13.9 41 5 55 55 SSW 12 19 30.00 1016 10 16 N/A
6:52 am 06:52 Mostly Sunny 55 12.8 42 5.6 62 62 SSW 12 19 29.99 1016 10 16 N/A
7:52 am 07:52 Mostly Sunny 57 13.9 44 6.7 62 62 SW 12 19 30.01 1016 10 16 N/A
8:52 am 08:52 Mostly Cloudy 61 16.1 46 7.8 58 58 SW 14 22 30.02 1017 10 16 N/A
9:52 am 09:52 Mostly Cloudy 60 15.6 46 7.8 60 60 SW 12 19 30.02 1017 10 16 N/A
10:52 am 10:52 Cloudy 62 16.7 48 8.9 60 60 SSW 9 15 30.02 1017 10 16 N/A
11:52 am 11:52 Mostly Cloudy 65 18.3 48 8.9 54 54 SW 12 19 30.01 1016 10 16 N/A
12:52 pm 12:52 Mostly Sunny 71 21.7 48 8.9 44 44 SW 16 26 29.98 1015 10 16 N/A
1:52 pm 13:52 Mostly Sunny 74 23.3 49 9.4 41 41 WSW 13 20 29.95 1014 10 16 N/A
2:52 pm 14:52 Mostly Sunny 74 23.3 48 8.9 40 40 WSW 12 19 29.93 1013 10 16 N/A
3:52 pm 15:52 Partly Cloudy 74 23.3 49 9.4 41 41 SSW 17 28 29.91 1013 10 16 N/A
4:52 pm 16:52 Mostly Cloudy 74 23.3 49 9.4 41 41 SW 16 26 29.88 1012 10 16 N/A
5:52 pm 17:52 Mostly Cloudy 72 22.2 50 10 46 46 SSW 15 24 29.88 1012 10 16 N/A
6:52 pm 18:52 Mostly Cloudy 71 21.7 50 10 47 47 S 13 20 29.87 1012 10 16 N/A
7:52 pm 19:52 Partly Cloudy 68 20 47 8.3 47 47 S 15 24 29.85 1011 10 16 N/A
8:52 pm 20:52 Mostly Cloudy 63 17.2 49 9.4 60 60 SSE 9 15 29.82 1010 10 16 N/A
9:52 pm 21:52 Cloudy 63 17.2 49 9.4 60 60 SSE 8 13 29.83 1010 10 16 N/A
10:52 pm 22:52 Mostly Clear 64 17.8 48 8.9 56 56 SSE 12 19 29.81 1010 10 16 N/A
11:52 pm 23:52 Mostly Cloudy 61 16.1 48 8.9 63 63 S 12 19 29.78 1009 10 16 0.00 0.00

Powered by AerisWeather